QPF
0.04 0.04 0.06 0.06 0.05 0.04 0.05 0.06 0.08 0.10 0.13 0.13 0.12 0.13 0.14 0.14 0.15 0.19 0.20 0.18 0.17 0.17 0.16 0.14 0.11 0.10 0.10 0.11 0.12 0.11 0.10 0.09 0.09 0.09 0.09 0.08 0.08 0.07 0.06 0.05 0.04 0.03 0.02
0.05 0.04 0.04 0.06 0.07 0.05 0.06 0.07 0.09 0.11 0.13 0.14 0.13 0.14 0.14 0.14 0.15 0.16 0.19 0.19 0.18 0.16 0.16 0.15 0.12 0.10 0.10 0.10 0.09 0.09 0.09 0.07 0.07 0.07 0.10 0.12 0.11 0.09 0.07 0.06 0.04 0.03 0.02
0.05 0.06 0.05 0.05 0.06 0.05 0.06 0.07 0.11 0.13 0.12 0.13 0.14 0.15 0.16 0.14 0.15 0.16 0.17 0.17 0.16 0.14 0.13 0.13 0.12 0.10 0.08 0.08 0.07 0.07 0.06 0.06 0.06 0.06 0.08 0.10 0.11 0.09 0.07 0.06 0.05 0.03 0.02
0.03 0.05 0.06 0.06 0.05 0.05 0.05 0.08 0.12 0.13 0.13 0.14 0.15 0.15 0.14 0.14 0.14 0.16 0.18 0.18 0.16 0.15 0.13 0.12 0.10 0.09 0.07 0.06 0.05 0.05 0.05 0.05 0.06 0.06 0.08 0.09 0.10 0.08 0.06 0.05 0.05 0.04 0.03
0.03 0.04 0.05 0.06 0.07 0.06 0.06 0.07 0.11 0.14 0.14 0.15 0.17 0.16 0.15 0.14 0.15 0.17 0.19 0.19 0.19 0.17 0.15 0.13 0.11 0.08 0.07 0.06 0.05 0.05 0.05 0.06 0.06 0.07 0.07 0.08 0.08 0.07 0.05 0.04 0.04 0.04 0.04
0.03 0.04 0.04 0.05 0.06 0.06 0.05 0.06 0.09 0.13 0.13 0.14 0.17 0.16 0.15 0.13 0.14 0.16 0.18 0.20 0.20 0.18 0.15 0.12 0.11 0.09 0.07 0.06 0.07 0.06 0.05 0.06 0.06 0.06 0.06 0.05 0.04 0.04 0.03 0.04 0.05 0.05 0.05
0.02 0.03 0.03 0.04 0.05 0.06 0.06 0.06 0.09 0.11 0.11 0.13 0.15 0.15 0.16 0.13 0.12 0.13 0.16 0.19 0.19 0.17 0.14 0.11 0.11 0.10 0.08 0.07 0.08 0.09 0.08 0.08 0.06 0.05 0.05 0.04 0.04 0.04 0.05 0.06 0.06 0.06 0.05
0.03 0.03 0.03 0.04 0.05 0.06 0.07 0.07 0.11 0.13 0.13 0.14 0.15 0.14 0.15 0.15 0.14 0.14 0.16 0.17 0.16 0.14 0.13 0.12 0.12 0.11 0.10 0.09 0.09 0.10 0.10 0.09 0.07 0.05 0.05 0.05 0.05 0.06 0.07 0.07 0.07 0.06 0.05
0.03 0.03 0.03 0.05 0.07 0.08 0.09 0.11 0.13 0.15 0.13 0.13 0.14 0.14 0.15 0.17 0.17 0.17 0.17 0.16 0.15 0.13 0.12 0.12 0.12 0.10 0.10 0.09 0.08 0.09 0.10 0.10 0.09 0.07 0.06 0.07 0.07 0.07 0.07 0.06 0.06 0.05 0.04
0.05 0.04 0.04 0.05 0.08 0.10 0.12 0.14 0.14 0.13 0.12 0.14 0.14 0.15 0.15 0.16 0.17 0.16 0.17 0.15 0.13 0.12 0.11 0.11 0.11 0.11 0.09 0.08 0.08 0.08 0.09 0.08 0.08 0.08 0.08 0.08 0.07 0.07 0.06 0.04 0.04 0.04 0.04
0.08 0.08 0.06 0.07 0.08 0.12 0.13 0.12 0.12 0.11 0.12 0.15 0.15 0.15 0.16 0.15 0.16 0.16 0.16 0.14 0.12 0.11 0.11 0.11 0.12 0.11 0.10 0.09 0.07 0.07 0.06 0.06 0.06 0.07 0.08 0.07 0.06 0.05 0.04 0.04 0.04 0.04 0.04
0.07 0.09 0.10 0.10 0.10 0.10 0.10 0.11 0.11 0.10 0.11 0.14 0.16 0.16 0.16 0.16 0.14 0.16 0.17 0.15 0.12 0.10 0.10 0.10 0.11 0.11 0.10 0.09 0.07 0.07 0.06 0.07 0.06 0.07 0.07 0.06 0.05 0.04 0.04 0.05 0.05 0.04 0.04
0.08 0.09 0.09 0.11 0.11 0.10 0.10 0.11 0.11 0.10 0.11 0.12 0.13 0.14 0.16 0.15 0.13 0.13 0.15 0.17 0.14 0.11 0.10 0.10 0.10 0.11 0.10 0.09 0.08 0.07 0.06 0.06 0.05 0.05 0.04 0.03 0.03 0.04 0.04 0.05 0.05 0.04 0.04
0.07 0.09 0.09 0.09 0.09 0.09 0.10 0.11 0.11 0.10 0.09 0.09 0.10 0.10 0.11 0.11 0.11 0.11 0.13 0.15 0.16 0.14 0.12 0.11 0.11 0.11 0.12 0.12 0.11 0.08 0.06 0.05 0.04 0.03 0.03 0.03 0.03 0.04 0.04 0.04 0.03 0.03 0.03
0.05 0.07 0.08 0.08 0.08 0.08 0.10 0.11 0.11 0.10 0.08 0.07 0.08 0.08 0.08 0.08 0.10 0.10 0.10 0.12 0.14 0.14 0.13 0.13 0.12 0.11 0.13 0.13 0.11 0.09 0.07 0.06 0.05 0.04 0.03 0.03 0.03 0.03 0.03 0.03 0.03 0.03 0.02
0.04 0.05 0.06 0.07 0.08 0.08 0.09 0.11 0.11 0.10 0.09 0.07 0.07 0.07 0.07 0.08 0.09 0.09 0.09 0.11 0.12 0.12 0.12 0.11 0.11 0.09 0.09 0.09 0.09 0.08 0.07 0.06 0.05 0.04 0.03 0.03 0.02 0.02 0.03 0.03 0.03 0.03 0.03
0.04 0.05 0.05 0.06 0.07 0.08 0.07 0.07 0.08 0.09 0.08 0.06 0.06 0.07 0.07 0.07 0.08 0.09 0.10 0.10 0.11 0.11 0.09 0.08 0.08 0.07 0.07 0.07 0.06 0.06 0.05 0.05 0.05 0.04 0.03 0.03 0.03 0.03 0.04 0.04 0.04 0.03 0.03
0.04 0.04 0.05 0.05 0.06 0.07 0.06 0.05 0.05 0.06 0.06 0.07 0.07 0.07 0.08 0.07 0.07 0.09 0.10 0.11 0.12 0.11 0.08 0.07 0.06 0.06 0.06 0.07 0.06 0.05 0.05 0.05 0.05 0.05 0.04 0.04 0.04 0.05 0.05 0.05 0.04 0.04 0.03
0.03 0.04 0.04 0.05 0.06 0.06 0.05 0.04 0.04 0.03 0.05 0.07 0.08 0.08 0.09 0.09 0.09 0.09 0.10 0.10 0.11 0.11 0.09 0.07 0.06 0.06 0.06 0.06 0.06 0.06 0.05 0.05 0.05 0.05 0.05 0.04 0.05 0.05 0.05 0.05 0.04 0.04 0.04
0.04 0.04 0.04 0.05 0.05 0.06 0.05 0.04 0.04 0.03 0.04 0.06 0.06 0.07 0.09 0.10 0.09 0.10 0.10 0.10 0.10 0.10 0.09 0.08 0.07 0.07 0.07 0.07 0.08 0.08 0.07 0.07 0.06 0.05 0.05 0.05 0.05 0.05 0.05 0.05 0.04 0.04 0.04
0.04 0.04 0.04 0.04 0.04 0.05 0.06 0.05 0.04 0.04 0.04 0.05 0.05 0.06 0.07 0.08 0.08 0.09 0.10 0.10 0.09 0.09 0.09 0.08 0.08 0.08 0.08 0.09 0.09 0.09 0.08 0.08 0.07 0.06 0.06 0.06 0.06 0.05 0.05 0.05 0.05 0.04 0.04
0.04 0.04 0.04 0.03 0.04 0.05 0.06 0.05 0.05 0.05 0.05 0.06 0.06 0.06 0.07 0.07 0.07 0.08 0.10 0.10 0.09 0.08 0.08 0.08 0.08 0.08 0.08 0.08 0.09 0.09 0.09 0.09 0.08 0.07 0.07 0.07 0.07 0.06 0.05 0.05 0.04 0.04 0.04
0.05 0.04 0.04 0.04 0.04 0.04 0.05 0.05 0.05 0.05 0.05 0.06 0.07 0.06 0.06 0.07 0.07 0.08 0.09 0.09 0.09 0.09 0.08 0.08 0.07 0.08 0.08 0.08 0.08 0.07 0.07 0.07 0.08 0.08 0.08 0.07 0.07 0.06 0.06 0.05 0.04 0.03 0.03
0.06 0.05 0.04 0.04 0.04 0.04 0.05 0.06 0.06 0.05 0.05 0.06 0.07 0.06 0.05 0.06 0.07 0.08 0.08 0.08 0.09 0.09 0.08 0.08 0.07 0.07 0.07 0.07 0.07 0.08 0.08 0.07 0.07 0.07 0.08 0.08 0.07 0.06 0.05 0.05 0.04 0.04 0.04
0.06 0.06 0.05 0.05 0.05 0.05 0.05 0.07 0.06 0.05 0.05 0.06 0.06 0.05 0.05 0.05 0.05 0.06 0.07 0.07 0.08 0.08 0.08 0.08 0.09 0.08 0.07 0.07 0.07 0.07 0.09 0.10 0.09 0.08 0.08 0.08 0.07 0.06 0.05 0.04 0.04 0.04 0.04
0.05 0.06 0.06 0.06 0.07 0.07 0.07 0.07 0.07 0.05 0.05 0.05 0.05 0.04 0.04 0.04 0.04 0.05 0.05 0.06 0.07 0.08 0.08 0.08 0.09 0.09 0.08 0.08 0.07 0.08 0.09 0.09 0.09 0.09 0.08 0.07 0.07 0.06 0.06 0.05 0.04 0.04 0.03
MSLP
987.90 986.99 986.38 986.08 986.06 986.32 986.80 987.47 988.30 989.21 990.15 991.05 991.86 992.53 993.06 993.44 993.71 993.92 994.12 994.38 994.74 995.25 995.90 996.71 997.64 998.64 999.69 1000.75 1001.78 1002.78 1003.73 1004.64 1005.52 1006.37 1007.21 1008.02 1008.79 1009.52 1010.20 1010.80 1011.32 1011.77 1012.14
986.27 985.33 984.74 984.50 984.57 984.92 985.50 986.24 987.10 988.03 988.95 989.82 990.61 991.28 991.83 992.27 992.64 992.97 993.32 993.72 994.22 994.84 995.59 996.45 997.41 998.43 999.48 1000.54 1001.59 1002.61 1003.61 1004.58 1005.52 1006.45 1007.35 1008.21 1009.03 1009.78 1010.45 1011.03 1011.52 1011.92 1012.24
985.22 984.28 983.72 983.53 983.66 984.08 984.70 985.46 986.30 987.17 988.02 988.82 989.53 990.15 990.69 991.17 991.61 992.06 992.54 993.09 993.74 994.48 995.33 996.26 997.26 998.30 999.36 1000.43 1001.49 1002.54 1003.57 1004.59 1005.60 1006.58 1007.53 1008.43 1009.27 1010.03 1010.68 1011.24 1011.68 1012.01 1012.26
984.75 983.83 983.32 983.17 983.36 983.80 984.42 985.15 985.93 986.71 987.44 988.11 988.71 989.25 989.75 990.24 990.74 991.28 991.89 992.59 993.37 994.24 995.19 996.19 997.24 998.30 999.38 1000.45 1001.52 1002.59 1003.64 1004.70 1005.74 1006.76 1007.75 1008.67 1009.52 1010.26 1010.89 1011.40 1011.79 1012.06 1012.23
984.74 983.88 983.43 983.34 983.56 984.01 984.60 985.28 985.96 986.61 987.20 987.73 988.21 988.65 989.10 989.58 990.13 990.75 991.48 992.30 993.21 994.20 995.24 996.31 997.40 998.48 999.56 1000.64 1001.70 1002.77 1003.84 1004.90 1005.96 1007.00 1008.00 1008.93 1009.77 1010.50 1011.09 1011.56 1011.88 1012.09 1012.19
985.02 984.25 983.87 983.84 984.09 984.54 985.10 985.70 986.28 986.81 987.27 987.67 988.03 988.39 988.79 989.27 989.85 990.56 991.38 992.31 993.33 994.42 995.53 996.66 997.78 998.87 999.95 1001.01 1002.06 1003.11 1004.16 1005.23 1006.28 1007.32 1008.31 1009.23 1010.05 1010.75 1011.31 1011.73 1012.01 1012.17 1012.21
985.41 984.74 984.44 984.46 984.74 985.19 985.72 986.27 986.77 987.19 987.55 987.85 988.13 988.44 988.83 989.32 989.95 990.73 991.64 992.67 993.78 994.94 996.11 997.27 998.40 999.49 1000.55 1001.58 1002.60 1003.62 1004.65 1005.69 1006.72 1007.74 1008.71 1009.60 1010.40 1011.07 1011.59 1011.98 1012.22 1012.34 1012.34
985.75 985.17 984.95 985.03 985.34 985.79 986.31 986.82 987.27 987.65 987.95 988.21 988.47 988.78 989.18 989.72 990.41 991.27 992.26 993.37 994.55 995.77 996.98 998.15 999.28 1000.35 1001.37 1002.36 1003.34 1004.32 1005.31 1006.30 1007.30 1008.28 1009.21 1010.07 1010.83 1011.47 1011.96 1012.32 1012.53 1012.62 1012.60
985.99 985.48 985.32 985.45 985.79 986.26 986.78 987.29 987.74 988.11 988.42 988.70 988.99 989.34 989.81 990.42 991.20 992.13 993.20 994.38 995.61 996.86 998.08 999.26 1000.37 1001.41 1002.39 1003.34 1004.27 1005.20 1006.14 1007.08 1008.03 1008.96 1009.85 1010.66 1011.37 1011.97 1012.43 1012.76 1012.95 1013.02 1012.99
986.17 985.72 985.60 985.75 986.12 986.61 987.15 987.68 988.16 988.58 988.95 989.29 989.66 990.11 990.67 991.38 992.24 993.26 994.39 995.62 996.89 998.15 999.38 1000.54 1001.62 1002.63 1003.57 1004.48 1005.36 1006.24 1007.13 1008.02 1008.91 1009.78 1010.60 1011.35 1012.01 1012.56 1012.98 1013.27 1013.44 1013.49 1013.45
986.44 986.01 985.90 986.07 986.45 986.96 987.53 988.10 988.64 989.13 989.58 990.03 990.51 991.07 991.74 992.55 993.50 994.58 995.77 997.03 998.31 999.57 1000.79 1001.92 1002.98 1003.96 1004.87 1005.74 1006.59 1007.42 1008.26 1009.09 1009.91 1010.71 1011.46 1012.14 1012.72 1013.19 1013.56 1013.80 1013.94 1013.97 1013.91
986.95 986.52 986.41 986.57 986.95 987.47 988.07 988.68 989.29 989.87 990.42 990.98 991.58 992.25 993.03 993.92 994.94 996.07 997.28 998.54 999.82 1001.06 1002.25 1003.37 1004.40 1005.35 1006.24 1007.08 1007.89 1008.69 1009.48 1010.25 1011.00 1011.72 1012.37 1012.95 1013.45 1013.84 1014.12 1014.30 1014.39 1014.38 1014.30
987.84 987.39 987.26 987.41 987.78 988.30 988.92 989.58 990.24 990.90 991.55 992.22 992.91 993.67 994.52 995.47 996.53 997.67 998.87 1000.12 1001.36 1002.57 1003.73 1004.81 1005.82 1006.75 1007.62 1008.44 1009.23 1009.99 1010.73 1011.44 1012.11 1012.74 1013.29 1013.76 1014.14 1014.43 1014.61 1014.71 1014.73 1014.68 1014.57
989.16 988.70 988.55 988.67 989.02 989.54 990.18 990.87 991.58 992.31 993.03 993.77 994.53 995.35 996.24 997.20 998.25 999.36 1000.53 1001.72 1002.91 1004.07 1005.18 1006.23 1007.21 1008.12 1008.98 1009.78 1010.55 1011.27 1011.96 1012.60 1013.19 1013.71 1014.15 1014.51 1014.76 1014.93 1015.01 1015.01 1014.95 1014.84 1014.69
990.88 990.41 990.24 990.35 990.69 991.21 991.85 992.56 993.31 994.08 994.85 995.63 996.43 997.26 998.15 999.08 1000.08 1001.13 1002.22 1003.34 1004.45 1005.54 1006.59 1007.59 1008.54 1009.43 1010.27 1011.05 1011.79 1012.48 1013.11 1013.68 1014.18 1014.60 1014.93 1015.16 1015.29 1015.34 1015.31 1015.21 1015.07 1014.89 1014.69
992.85 992.39 992.23 992.33 992.67 993.20 993.85 994.58 995.36 996.15 996.95 997.74 998.54 999.36 1000.20 1001.07 1001.99 1002.95 1003.94 1004.95 1005.97 1006.97 1007.95 1008.90 1009.81 1010.67 1011.48 1012.23 1012.94 1013.58 1014.15 1014.65 1015.06 1015.38 1015.59 1015.71 1015.73 1015.67 1015.53 1015.35 1015.13 1014.89 1014.64
994.90 994.46 994.32 994.44 994.80 995.34 996.01 996.77 997.57 998.38 999.19 999.98 1000.76 1001.53 1002.31 1003.10 1003.93 1004.78 1005.66 1006.56 1007.47 1008.38 1009.29 1010.17 1011.02 1011.84 1012.61 1013.32 1013.98 1014.56 1015.07 1015.49 1015.82 1016.04 1016.16 1016.18 1016.11 1015.96 1015.75 1015.49 1015.21 1014.92 1014.63
996.84 996.45 996.35 996.50 996.89 997.46 998.17 998.95 999.78 1000.61 1001.42 1002.20 1002.95 1003.68 1004.40 1005.11 1005.84 1006.58 1007.35 1008.14 1008.95 1009.78 1010.60 1011.41 1012.20 1012.95 1013.67 1014.33 1014.92 1015.44 1015.88 1016.22 1016.47 1016.61 1016.65 1016.60 1016.46 1016.25 1015.99 1015.69 1015.37 1015.05 1014.72
998.58 998.25 998.19 998.40 998.83 999.44 1000.18 1001.00 1001.86 1002.71 1003.53 1004.30 1005.03 1005.72 1006.38 1007.03 1007.67 1008.33 1009.00 1009.70 1010.42 1011.15 1011.89 1012.62 1013.34 1014.03 1014.67 1015.26 1015.79 1016.23 1016.60 1016.87 1017.04 1017.12 1017.11 1017.01 1016.83 1016.59 1016.30 1015.99 1015.65 1015.30 1014.94
1000.09 999.82 999.82 1000.07 1000.55 1001.21 1001.99 1002.84 1003.72 1004.59 1005.42 1006.20 1006.91 1007.58 1008.20 1008.80 1009.38 1009.97 1010.58 1011.20 1011.84 1012.50 1013.16 1013.82 1014.46 1015.07 1015.64 1016.15 1016.59 1016.96 1017.25 1017.45 1017.56 1017.59 1017.54 1017.41 1017.22 1016.97 1016.68 1016.37 1016.02 1015.66 1015.29
1001.44 1001.22 1001.27 1001.57 1002.09 1002.78 1003.58 1004.46 1005.36 1006.23 1007.07 1007.85 1008.56 1009.21 1009.81 1010.39 1010.94 1011.49 1012.05 1012.62 1013.21 1013.81 1014.40 1014.99 1015.55 1016.08 1016.57 1016.99 1017.35 1017.63 1017.84 1017.98 1018.04 1018.03 1017.95 1017.81 1017.62 1017.38 1017.10 1016.79 1016.46 1016.09 1015.70
1002.73 1002.55 1002.64 1002.96 1003.50 1004.20 1005.01 1005.89 1006.78 1007.66 1008.49 1009.26 1009.97 1010.62 1011.22 1011.78 1012.33 1012.86 1013.40 1013.94 1014.49 1015.04 1015.58 1016.10 1016.60 1017.04 1017.44 1017.78 1018.05 1018.25 1018.39 1018.46 1018.48 1018.43 1018.33 1018.19 1018.00 1017.78 1017.51 1017.22 1016.88 1016.51 1016.10
1004.07 1003.92 1004.02 1004.35 1004.88 1005.56 1006.34 1007.19 1008.05 1008.90 1009.71 1010.47 1011.17 1011.82 1012.42 1012.99 1013.54 1014.07 1014.61 1015.14 1015.66 1016.18 1016.67 1017.14 1017.56 1017.93 1018.25 1018.50 1018.69 1018.81 1018.88 1018.89 1018.86 1018.78 1018.66 1018.51 1018.33 1018.11 1017.86 1017.57 1017.23 1016.86 1016.43
1005.52 1005.38 1005.48 1005.79 1006.27 1006.90 1007.63 1008.42 1009.22 1010.02 1010.79 1011.52 1012.20 1012.84 1013.45 1014.02 1014.58 1015.13 1015.67 1016.19 1016.71 1017.19 1017.65 1018.06 1018.42 1018.72 1018.96 1019.13 1019.25 1019.30 1019.30 1019.26 1019.18 1019.07 1018.93 1018.77 1018.58 1018.36 1018.11 1017.82 1017.48 1017.09 1016.65
1007.07 1006.93 1007.00 1007.26 1007.69 1008.24 1008.89 1009.59 1010.31 1011.04 1011.76 1012.44 1013.10 1013.73 1014.33 1014.92 1015.49 1016.05 1016.59 1017.12 1017.62 1018.08 1018.50 1018.87 1019.17 1019.41 1019.58 1019.68 1019.73 1019.71 1019.66 1019.57 1019.45 1019.30 1019.14 1018.96 1018.76 1018.54 1018.28 1017.98 1017.63 1017.24 1016.78
1008.64 1008.48 1008.52 1008.72 1009.07 1009.53 1010.08 1010.69 1011.33 1011.98 1012.63 1013.27 1013.90 1014.52 1015.12 1015.71 1016.29 1016.86 1017.41 1017.93 1018.42 1018.86 1019.25 1019.57 1019.82 1020.00 1020.11 1020.15 1020.14 1020.07 1019.97 1019.83 1019.68 1019.51 1019.32 1019.12 1018.91 1018.67 1018.40 1018.09 1017.74 1017.34 1016.88
Thickness
5467 5467 5467 5469 5470 5473 5475 5478 5480 5483 5487 5490 5495 5500 5507 5513 5517 5522 5530 5535 5540 5545 5548 5552 5558 5563 5568 5574 5579 5584 5588 5593 5595 5592 5590 5589 5587 5584 5581 5579 5576 5572 5567
5461 5461 5461 5463 5465 5468 5470 5472 5473 5476 5481 5484 5488 5493 5501 5507 5512 5518 5525 5531 5535 5540 5544 5547 5553 5556 5562 5567 5573 5578 5582 5586 5588 5585 5581 5580 5579 5577 5575 5572 5568 5564 5561
5455 5455 5457 5459 5461 5463 5465 5466 5468 5471 5476 5479 5484 5489 5496 5502 5508 5516 5522 5527 5531 5536 5540 5544 5549 5552 5558 5562 5567 5572 5575 5578 5580 5578 5575 5573 5570 5568 5566 5563 5560 5556 5552
5451 5451 5453 5455 5457 5459 5460 5460 5462 5466 5471 5476 5481 5487 5493 5499 5506 5512 5518 5523 5528 5532 5536 5541 5546 5550 5555 5559 5562 5566 5568 5570 5571 5570 5569 5566 5563 5560 5559 5556 5552 5548 5543
5448 5448 5449 5450 5452 5454 5455 5456 5458 5461 5467 5472 5479 5484 5491 5498 5504 5509 5514 5520 5524 5528 5533 5538 5543 5547 5552 5555 5559 5562 5563 5564 5564 5563 5563 5561 5558 5554 5555 5552 5548 5542 5536
5444 5445 5446 5446 5448 5449 5452 5454 5456 5459 5464 5469 5476 5482 5489 5496 5501 5506 5511 5516 5521 5525 5531 5536 5540 5543 5547 5550 5553 5557 5559 5561 5561 5561 5561 5561 5560 5556 5553 5548 5542 5537 5532
5440 5441 5443 5444 5444 5446 5449 5451 5455 5458 5462 5466 5471 5478 5486 5493 5498 5503 5508 5514 5518 5523 5529 5534 5537 5540 5543 5545 5547 5549 5550 5554 5558 5561 5561 5562 5558 5556 5551 5545 5540 5536 5531
5435 5437 5438 5438 5439 5442 5445 5448 5452 5455 5460 5464 5469 5475 5483 5490 5495 5500 5505 5510 5516 5521 5527 5531 5534 5537 5540 5542 5543 5544 5546 5548 5551 5553 5557 5557 5554 5550 5546 5542 5536 5526 5517
5431 5432 5433 5433 5434 5437 5441 5445 5449 5452 5456 5461 5467 5473 5481 5487 5492 5497 5501 5506 5512 5518 5523 5527 5531 5534 5536 5537 5538 5539 5540 5540 5541 5544 5546 5546 5544 5542 5538 5532 5526 5520 5512
5427 5428 5430 5431 5431 5434 5437 5441 5446 5449 5454 5459 5465 5471 5478 5484 5489 5494 5498 5504 5510 5516 5521 5525 5528 5531 5531 5533 5535 5536 5535 5535 5535 5535 5535 5534 5534 5531 5530 5529 5525 5519 5511
5422 5424 5425 5426 5429 5432 5435 5439 5443 5447 5451 5456 5461 5468 5474 5480 5485 5491 5496 5502 5508 5514 5518 5521 5523 5524 5526 5528 5531 5533 5534 5532 5530 5529 5528 5526 5523 5522 5520 5518 5515 5513 5508
5417 5419 5421 5422 5424 5427 5431 5435 5439 5444 5448 5453 5458 5464 5471 5476 5481 5487 5493 5499 5505 5510 5514 5517 5518 5519 5521 5523 5525 5526 5524 5524 5523 5522 5520 5517 5515 5513 5509 5506 5503 5500 5498
5411 5413 5415 5417 5419 5421 5425 5429 5434 5439 5444 5449 5454 5460 5466 5472 5477 5482 5488 5494 5499 5505 5508 5511 5512 5513 5515 5516 5517 5517 5516 5517 5517 5515 5514 5511 5508 5504 5499 5495 5491 5488 5485
5404 5406 5408 5410 5412 5416 5419 5423 5428 5433 5438 5443 5449 5455 5461 5466 5471 5477 5482 5488 5494 5498 5501 5503 5506 5508 5509 5509 5508 5508 5510 5511 5511 5510 5506 5502 5498 5494 5491 5489 5485 5481 5475
5396 5398 5400 5402 5404 5409 5413 5417 5421 5427 5431 5436 5443 5450 5456 5463 5467 5472 5478 5485 5489 5492 5495 5497 5499 5501 5502 5502 5502 5502 5502 5502 5502 5500 5497 5494 5491 5487 5484 5481 5479 5475 5470
5388 5390 5392 5394 5397 5401 5406 5412 5416 5421 5426 5431 5437 5443 5450 5456 5461 5468 5474 5480 5484 5487 5491 5494 5495 5497 5499 5498 5498 5497 5496 5496 5495 5494 5492 5489 5485 5481 5477 5474 5472 5469 5463
5380 5382 5384 5387 5391 5396 5400 5406 5412 5418 5422 5427 5433 5439 5445 5451 5458 5464 5469 5475 5478 5482 5486 5488 5491 5493 5494 5494 5494 5493 5491 5490 5489 5488 5486 5483 5479 5476 5472 5468 5465 5461 5455
5374 5376 5378 5382 5387 5392 5396 5401 5406 5412 5418 5424 5428 5433 5439 5446 5452 5458 5463 5469 5473 5477 5481 5484 5487 5489 5489 5489 5488 5487 5485 5483 5482 5481 5479 5477 5475 5471 5466 5463 5460 5455 5449
5370 5373 5375 5378 5382 5387 5392 5397 5403 5408 5414 5419 5424 5429 5434 5440 5447 5453 5458 5464 5469 5472 5475 5478 5481 5482 5483 5482 5482 5482 5481 5479 5477 5476 5474 5472 5470 5467 5462 5458 5454 5448 5443
5367 5368 5371 5375 5379 5383 5388 5393 5398 5403 5408 5413 5418 5423 5428 5436 5443 5448 5453 5458 5463 5467 5469 5472 5473 5475 5476 5476 5476 5476 5475 5473 5472 5471 5469 5467 5464 5461 5457 5453 5449 5444 5438
5362 5366 5368 5372 5375 5379 5383 5388 5393 5398 5403 5408 5413 5418 5424 5431 5437 5442 5447 5451 5456 5460 5463 5465 5467 5469 5470 5471 5472 5471 5471 5469 5468 5467 5465 5462 5459 5455 5452 5448 5443 5438 5431
5358 5362 5365 5368 5371 5375 5379 5384 5389 5394 5399 5403 5408 5413 5419 5425 5431 5436 5440 5444 5449 5453 5457 5460 5463 5465 5466 5467 5467 5467 5467 5465 5463 5462 5460 5457 5454 5450 5447 5443 5437 5432 5426
5354 5358 5361 5364 5367 5371 5376 5380 5385 5390 5395 5400 5405 5410 5415 5420 5425 5430 5434 5438 5443 5447 5451 5454 5456 5458 5460 5461 5461 5463 5464 5462 5461 5460 5457 5453 5449 5446 5443 5439 5433 5427 5421
5351 5354 5358 5361 5364 5368 5372 5376 5381 5385 5390 5395 5400 5405 5410 5415 5420 5424 5429 5433 5437 5441 5445 5448 5451 5453 5454 5455 5456 5457 5458 5457 5456 5455 5454 5451 5447 5443 5438 5433 5428 5422 5416
5347 5351 5354 5358 5361 5364 5368 5373 5377 5381 5386 5391 5396 5401 5406 5411 5415 5419 5424 5428 5432 5436 5439 5442 5445 5447 5449 5451 5452 5452 5452 5452 5452 5450 5448 5446 5442 5438 5434 5428 5423 5416 5410
5344 5347 5351 5354 5358 5362 5366 5370 5374 5378 5383 5387 5392 5398 5402 5407 5410 5414 5419 5424 5428 5431 5434 5436 5440 5443 5444 5445 5446 5447 5447 5447 5447 5446 5443 5440 5437 5433 5428 5423 5417 5411 5405